Temperature
18 18 18 19 19 19 19 19 18 19 19 19 19 19 19 19 19 19 19 18 18 18 18 18 18 18 18 18 17 17 17 17 17 17 17 17 17 17 16 16 16 16 16
18 18 18 18 19 19 19 18 19 19 19 19 19 19 19 19 19 19 18 18 18 18 18 18 18 18 18 17 17 17 17 17 17 17 17 17 17 17 17 17 16 16 16
18 18 18 18 18 19 19 19 19 19 19 19 19 19 19 19 19 19 18 18 18 18 18 18 18 18 18 18 17 17 17 17 17 17 17 17 17 17 16 16 16 16 16
18 18 18 18 18 18 19 19 19 19 19 19 19 19 19 19 19 18 18 18 18 18 18 18 18 18 18 18 18 17 17 17 17 17 17 17 17 17 16 16 16 16 16
19 18 18 18 18 18 19 19 19 19 18 19 19 19 19 19 19 19 18 18 18 18 18 18 18 18 18 18 18 17 17 17 17 17 17 17 17 17 16 16 16 16 16
18 19 18 18 18 18 18 19 19 19 18 18 19 19 19 19 19 19 18 18 18 18 18 18 18 18 18 18 18 18 18 17 17 17 17 17 17 17 16 16 16 16 16
18 19 18 19 18 18 18 19 19 18 18 18 18 19 19 19 19 19 19 18 18 18 18 18 18 18 17 17 18 18 17 17 17 17 17 17 17 17 17 16 16 16 16
19 18 19 18 18 18 18 19 19 18 18 18 18 18 19 19 19 19 19 18 18 18 18 18 18 18 17 17 17 17 17 17 17 17 17 17 17 17 17 16 16 16 16
19 19 19 18 18 18 18 18 19 19 18 18 18 18 18 18 18 19 19 19 18 18 18 18 18 18 18 17 17 17 17 17 17 17 17 17 17 17 17 16 16 16 16
19 19 19 18 18 18 18 18 18 18 18 18 18 18 19 18 18 18 18 18 18 18 18 18 18 18 18 17 17 17 17 17 17 17 17 17 17 17 17 16 16 16 16
19 19 18 18 18 18 18 18 18 18 18 18 18 18 18 18 18 18 18 18 18 18 18 18 18 18 17 17 17 17 17 17 17 17 17 16 17 17 16 16 16 16 16
19 19 18 18 18 18 18 18 18 18 18 18 18 18 18 18 18 18 18 18 18 18 18 18 18 18 17 17 17 17 17 17 17 17 17 17 16 16 16 16 16 16 16
19 19 19 19 18 18 18 18 18 18 18 18 18 18 18 18 18 18 18 18 18 18 18 18 17 17 17 17 17 17 17 17 17 17 17 16 16 16 16 16 16 16 16
19 19 19 19 19 18 18 18 18 18 18 18 18 18 18 18 18 18 18 18 17 18 18 18 17 17 17 17 17 17 17 17 17 16 16 16 16 16 16 16 16 16 15
19 19 19 19 19 18 18 18 18 18 18 18 18 18 18 18 18 18 18 18 18 17 17 18 17 17 17 17 17 17 17 16 16 16 16 16 16 16 16 16 16 15 15
19 19 19 18 18 18 18 18 18 18 18 18 18 18 18 18 18 17 17 18 18 17 17 17 17 17 17 17 17 16 16 16 16 16 16 16 16 16 16 15 15 15 15
19 19 19 18 18 18 18 18 18 18 18 18 18 18 18 18 17 17 17 17 17 17 17 17 17 17 17 17 16 16 16 16 16 16 16 16 16 15 15 15 15 15 15
18 18 18 18 18 18 18 18 18 18 17 17 18 17 17 17 17 17 17 17 17 17 17 17 17 17 16 16 16 16 16 15 15 15 15 15 15 15 15 15 15 15 15
18 18 18 18 18 18 18 18 18 18 17 17 17 17 17 17 17 17 17 17 17 17 16 16 16 16 16 16 16 15 15 15 15 15 15 15 15 15 15 15 15 14 14
18 18 18 18 18 18 18 17 17 17 17 17 17 17 17 17 17 17 16 17 16 16 16 16 16 16 16 15 15 15 15 15 15 15 15 15 15 15 15 15 14 14 14
18 18 18 18 17 17 17 17 17 17 17 17 17 17 17 17 16 16 16 16 16 16 16 16 16 15 15 15 15 15 14 14 14 14 14 14 14 14 14 14 14 14 14
17 17 17 17 17 17 17 17 17 17 17 17 17 17 17 16 16 16 16 16 16 16 16 15 15 15 15 15 15 14 14 14 14 14 14 14 14 14 14 14 14 14 14
17 17 17 17 17 17 17 17 17 17 17 17 17 16 16 16 16 16 16 16 16 16 15 15 15 15 15 15 14 14 14 14 14 14 14 14 14 13 13 13 13 13 13
17 17 17 17 17 17 17 17 17 17 17 16 16 16 16 16 16 16 16 15 15 15 15 15 15 15 15 15 14 14 14 14 13 14 14 13 13 13 13 13 13 13 13
17 17 16 16 16 16 16 16 16 16 16 16 16 16 15 15 15 15 15 15 15 15 15 15 14 14 14 14 14 14 14 13 13 13 13 13 13 13 13 13 13 13 12
16 16 16 16 16 16 16 16 16 16 16 15 15 15 15 15 15 15 15 14 14 14 14 14 14 14 14 14 14 14 13 13 13 13 13 13 13 13 12 12 12 12 12
Wind_Speed
2 2 2 2 3 3 3 2 2 2 2 2 2 2 1 1 4 7 9 12 12 11 10 9 8 8 7 7 6 6 6 6 7 8 7 7 7 7 8 8 7 7 7
2 2 1 1 1 1 2 2 2 2 1 1 1 1 1 1 2 6 9 11 12 12 12 11 10 9 9 8 7 7 7 7 7 8 8 8 8 8 8 9 8 8 8
3 2 1 1 1 1 1 1 1 1 2 1 1 2 2 2 2 4 7 9 10 12 12 12 11 10 10 9 8 8 8 8 8 8 8 8 8 9 9 9 9 9 9
4 2 1 1 1 1 1 1 0 0 0 0 1 1 1 2 3 4 6 7 9 9 11 13 12 12 11 10 9 9 9 9 9 9 9 9 9 10 10 10 10 10 10
4 2 1 1 2 1 1 1 2 0 0 1 2 2 2 2 3 4 4 5 6 8 9 12 13 13 12 11 11 10 10 10 10 10 10 10 10 10 10 10 10 10 10
4 3 2 2 1 1 0 0 1 0 1 2 3 1 1 2 2 2 3 3 5 6 8 10 10 11 13 12 12 12 11 10 10 11 10 10 10 9 10 10 11 11 11
4 3 2 2 2 2 2 1 1 2 2 2 2 1 2 2 2 3 2 1 2 4 4 7 8 8 9 12 12 11 11 11 10 10 10 11 11 10 10 11 11 12 12
4 5 3 2 2 2 2 2 2 2 2 2 1 1 1 1 1 3 3 3 2 2 3 5 6 6 6 7 10 12 11 11 10 10 10 10 10 11 11 11 11 12 12
5 4 4 3 2 2 2 3 3 3 2 2 2 1 1 1 1 1 2 2 2 1 1 1 3 5 6 6 7 9 11 10 9 9 8 8 8 9 10 11 11 11 11
5 5 4 4 3 2 2 3 3 3 3 3 2 2 2 1 1 1 1 1 2 2 2 2 1 3 5 6 6 8 9 9 9 8 7 7 7 8 8 8 9 10 10
4 4 4 3 2 2 2 2 1 2 2 3 2 2 2 2 3 2 2 1 1 1 2 2 1 2 4 6 6 7 9 9 9 9 9 8 7 7 7 8 8 9 9
4 5 5 4 3 3 3 2 2 3 3 3 3 3 2 2 2 2 2 3 2 2 1 1 2 2 3 5 6 7 9 10 9 9 9 8 7 7 7 7 7 7 7
4 5 5 4 3 3 3 3 2 3 3 4 4 3 3 3 2 2 2 2 2 2 2 2 2 2 2 5 5 7 9 10 10 9 9 8 7 7 7 7 7 7 7
3 4 5 4 4 4 5 3 4 4 4 4 5 4 4 3 2 2 2 2 2 2 2 2 2 3 3 4 5 8 8 10 10 10 9 9 8 8 7 7 7 6 6
4 4 5 5 5 5 4 4 4 4 4 4 5 5 4 3 3 3 2 3 3 3 3 3 2 3 4 5 7 6 5 9 11 10 10 10 9 8 8 7 7 7 7
4 3 4 4 4 5 5 5 5 5 4 5 4 4 4 4 3 3 3 3 2 3 3 2 2 2 3 3 6 5 5 6 9 11 11 11 10 10 9 8 8 7 7
4 4 4 5 5 5 5 5 6 5 5 5 5 5 5 4 3 3 3 3 3 2 3 3 2 1 2 2 3 4 5 6 7 11 12 12 11 10 9 8 7 6 6
5 5 4 5 6 5 5 6 6 6 5 6 6 5 5 5 4 4 3 4 3 3 3 4 3 2 2 3 3 4 4 4 5 8 12 13 12 11 10 9 8 7 6
5 5 5 6 6 5 6 6 6 6 6 6 6 5 5 4 5 4 4 3 3 3 2 3 4 2 2 2 2 2 3 2 4 5 8 10 12 11 10 9 9 8 6
5 5 6 5 5 6 6 6 6 6 5 5 5 5 4 4 4 4 4 3 3 2 2 3 3 3 2 2 2 2 3 3 3 3 3 5 8 10 9 9 9 8 7
7 5 5 5 6 6 6 5 5 6 5 5 4 4 4 2 2 2 3 2 2 2 3 3 3 2 2 2 2 2 2 2 3 2 2 2 3 4 5 7 8 9 8
4 4 5 5 5 6 4 4 4 4 4 5 4 3 3 3 2 3 2 2 2 3 3 3 3 3 3 3 2 3 2 2 3 2 1 2 3 2 4 6 9 11 10
4 4 4 4 4 4 3 3 4 4 4 3 3 3 4 2 3 2 1 1 1 2 4 4 4 4 4 3 3 3 3 4 4 3 2 3 3 3 4 5 9 11 11
3 4 4 4 3 3 2 2 3 3 3 3 3 3 2 2 2 2 1 2 1 1 2 2 2 3 3 2 4 5 5 4 4 3 2 3 2 2 2 4 9 10 10
3 3 3 3 2 2 2 2 2 2 2 2 2 2 2 2 2 3 2 2 1 1 1 1 1 2 3 3 3 2 3 3 3 2 1 2 2 2 2 2 6 10 9
3 3 3 2 2 2 2 3 3 2 2 2 1 2 2 3 3 3 3 2 2 2 1 1 2 2 3 4 4 3 3 3 2 2 1 1 2 1 1 1 3 5 6
Wind_Direction
120 132 133 166 185 177 175 202 201 158 185 207 225 190 202 140 150 144 154 169 173 180 184 188 190 190 191 193 195 197 198 201 198 193 197 198 198 196 198 199 202 208 208
111 119 141 168 224 168 183 192 190 158 196 202 237 206 193 192 154 151 160 173 182 188 192 194 196 198 201 202 205 207 208 206 198 198 200 201 203 204 204 205 207 210 211
128 142 155 166 249 236 199 220 221 181 198 195 211 221 192 179 163 156 164 174 182 193 196 198 200 203 207 207 212 215 212 209 206 207 206 206 209 210 210 213 213 214 215
143 157 172 181 213 239 183 205 220 266 15 247 224 250 179 159 171 181 194 185 177 182 192 199 202 205 206 208 211 217 216 211 211 214 213 212 212 215 217 219 218 219 219
156 176 190 185 203 206 208 223 115 96 277 265 236 214 205 180 189 201 192 181 173 173 179 193 203 205 205 207 210 215 216 214 214 216 216 215 215 218 220 221 221 221 222
180 200 181 173 183 184 192 104 99 216 255 250 255 220 207 205 192 193 192 175 166 179 184 184 195 206 210 211 212 216 218 216 213 214 216 217 219 221 222 224 227 225 224
192 205 209 165 198 205 202 205 181 234 242 243 262 283 228 204 185 178 183 178 165 175 182 177 186 193 198 210 211 211 214 214 213 215 217 221 223 224 226 226 229 229 227
199 202 212 202 204 197 207 221 222 244 249 244 254 285 301 293 252 192 172 185 186 174 188 185 187 187 184 182 200 208 212 212 212 212 215 222 227 228 229 230 232 230 229
206 219 198 215 216 206 206 211 222 226 243 248 237 219 227 235 289 217 198 168 157 165 188 193 174 174 173 166 174 193 201 205 209 213 216 221 227 228 231 233 234 233 232
205 215 207 216 229 238 225 222 211 235 238 254 251 240 225 205 198 233 255 175 174 197 210 225 158 156 168 162 155 165 184 196 206 213 218 222 227 227 226 233 235 233 234
207 215 205 210 213 232 241 235 245 242 243 253 258 257 246 237 227 215 233 237 255 232 201 204 178 156 157 151 155 165 172 187 199 207 214 220 224 225 227 234 238 239 240
211 211 205 203 214 226 234 225 228 239 250 265 275 276 261 234 231 226 227 224 223 242 229 195 188 151 160 157 168 178 176 181 189 196 204 214 218 220 226 234 238 242 245
216 210 205 194 211 221 229 231 231 236 235 244 252 260 263 259 252 238 222 236 249 243 228 220 196 173 181 151 160 172 173 180 186 192 198 205 213 220 225 230 236 240 245
224 201 186 192 205 215 227 219 226 230 223 237 249 251 258 265 261 242 227 220 243 250 227 224 188 176 161 155 164 170 173 185 191 195 199 204 211 218 222 225 229 237 242
225 204 198 201 207 218 227 223 234 236 230 235 241 243 246 250 251 249 240 223 228 257 261 228 206 186 166 159 159 172 171 183 191 197 203 209 210 213 218 223 225 231 238
235 219 209 214 213 220 229 229 233 234 229 235 236 238 252 249 245 245 246 248 243 243 266 264 230 191 174 174 164 174 181 192 199 201 203 209 211 214 217 221 226 228 234
243 232 224 220 218 223 225 228 238 235 236 241 245 238 239 249 249 250 253 251 240 238 258 277 268 181 168 185 174 189 201 198 202 205 205 207 210 211 208 211 215 222 229
236 235 225 226 227 227 228 230 236 239 235 239 244 244 244 244 240 249 252 253 245 234 239 260 264 244 233 204 193 220 225 217 204 210 206 204 207 206 206 210 211 214 222
238 239 231 229 234 235 233 234 235 241 242 240 241 244 243 244 244 244 245 248 251 252 234 247 258 253 250 220 207 244 258 234 244 221 206 203 206 204 203 205 206 209 215
237 243 245 242 241 241 239 237 238 241 245 247 245 249 250 246 246 248 245 246 254 251 241 241 250 253 249 228 202 228 256 247 256 233 201 196 200 203 201 203 202 202 206
242 238 244 246 247 248 245 238 241 240 240 249 247 240 237 215 208 230 252 250 248 243 243 242 245 251 254 250 239 250 251 260 258 239 208 203 182 180 192 206 203 201 203
249 243 242 244 248 252 251 226 226 243 237 239 245 239 217 195 187 185 230 250 241 235 238 239 251 247 244 249 249 248 246 254 259 242 221 227 187 188 191 191 197 198 201
245 243 246 244 249 264 270 229 211 231 241 236 234 227 231 208 172 163 171 172 249 258 241 237 245 251 244 236 229 243 253 260 259 245 231 231 202 206 193 187 188 193 195
253 243 246 246 246 260 254 227 222 216 233 231 222 221 211 199 218 163 202 220 224 270 255 216 223 235 237 238 227 227 238 253 255 251 217 231 221 215 194 171 183 187 189
246 245 242 243 246 253 205 199 207 223 222 230 223 213 204 188 198 178 190 196 217 280 324 103 187 224 232 240 231 223 230 226 249 245 230 220 224 217 202 191 182 185 193
234 243 240 230 227 231 202 185 195 218 223 236 231 205 206 199 193 180 200 207 224 246 245 260 275 253 233 224 209 205 215 228 246 252 228 237 240 204 216 194 169 185 201
Height
1545 1546 1547 1548 1549 1550 1551 1551 1552 1553 1554 1554 1555 1556 1556 1557 1557 1557 1557 1557 1558 1558 1559 1559 1559 1560 1560 1561 1561 1562 1562 1563 1563 1564 1565 1565 1566 1566 1567 1568 1569 1570 1571
1546 1546 1547 1548 1549 1550 1551 1551 1552 1553 1553 1554 1554 1555 1556 1556 1557 1556 1556 1556 1557 1557 1557 1558 1558 1558 1559 1559 1560 1560 1561 1561 1562 1562 1563 1564 1564 1565 1566 1567 1568 1569 1569
1545 1546 1547 1548 1549 1550 1550 1551 1552 1552 1553 1553 1554 1554 1555 1555 1555 1555 1555 1555 1556 1556 1556 1556 1556 1557 1557 1558 1558 1559 1559 1560 1560 1561 1562 1562 1563 1563 1564 1565 1566 1567 1568
1545 1546 1547 1547 1548 1549 1550 1551 1551 1552 1552 1552 1553 1553 1554 1554 1554 1554 1554 1555 1555 1555 1555 1555 1555 1555 1555 1556 1556 1557 1557 1558 1559 1559 1560 1560 1561 1561 1562 1563 1564 1565 1566
1544 1545 1546 1547 1548 1548 1549 1550 1551 1551 1551 1551 1551 1552 1552 1553 1553 1553 1554 1554 1554 1554 1554 1554 1554 1553 1554 1554 1554 1555 1555 1556 1557 1557 1558 1558 1559 1559 1560 1561 1562 1563 1563
1544 1544 1545 1546 1547 1548 1549 1549 1549 1550 1550 1550 1551 1551 1551 1551 1551 1552 1552 1553 1553 1553 1553 1552 1552 1552 1552 1552 1552 1553 1553 1554 1554 1555 1556 1556 1557 1557 1558 1559 1560 1560 1561
1543 1544 1545 1545 1546 1547 1548 1548 1548 1549 1549 1550 1550 1550 1550 1550 1550 1550 1551 1551 1552 1552 1552 1552 1551 1551 1550 1550 1550 1551 1551 1551 1552 1553 1553 1554 1554 1555 1555 1556 1557 1558 1559
1542 1543 1544 1544 1545 1546 1546 1547 1547 1547 1548 1549 1549 1549 1549 1550 1549 1549 1549 1550 1550 1551 1551 1551 1550 1549 1549 1548 1548 1549 1549 1549 1550 1550 1551 1551 1552 1552 1553 1553 1554 1555 1555
1541 1542 1542 1543 1544 1544 1545 1545 1546 1546 1546 1547 1548 1548 1548 1548 1548 1548 1548 1549 1549 1549 1549 1549 1549 1548 1548 1547 1546 1547 1547 1547 1548 1548 1548 1549 1549 1549 1550 1550 1551 1552 1552
1539 1540 1541 1542 1542 1543 1544 1544 1544 1545 1545 1546 1546 1547 1547 1547 1547 1547 1548 1548 1548 1547 1547 1547 1547 1547 1546 1545 1545 1545 1545 1545 1545 1546 1546 1546 1546 1547 1547 1547 1548 1549 1549
1538 1539 1539 1540 1540 1541 1542 1543 1543 1543 1544 1544 1544 1545 1545 1545 1545 1546 1546 1546 1546 1546 1545 1545 1545 1545 1544 1544 1543 1543 1543 1543 1543 1543 1543 1544 1544 1544 1544 1545 1545 1545 1546
1536 1537 1537 1538 1538 1539 1540 1541 1541 1542 1542 1542 1542 1543 1543 1543 1543 1544 1543 1544 1544 1544 1543 1543 1543 1543 1542 1542 1541 1541 1541 1541 1541 1541 1541 1541 1541 1541 1541 1542 1542 1542 1543
1534 1535 1536 1536 1536 1537 1538 1538 1539 1539 1540 1540 1540 1541 1541 1541 1541 1542 1542 1542 1542 1542 1542 1541 1541 1540 1540 1540 1540 1539 1539 1539 1539 1539 1539 1539 1539 1539 1538 1539 1539 1539 1539
1532 1533 1533 1534 1534 1535 1536 1536 1536 1537 1537 1537 1538 1538 1539 1539 1539 1539 1540 1539 1539 1540 1539 1539 1539 1538 1538 1538 1537 1537 1537 1537 1537 1537 1536 1536 1536 1536 1535 1535 1535 1536 1536
1530 1531 1531 1531 1532 1532 1533 1533 1534 1534 1534 1535 1535 1536 1536 1536 1536 1537 1537 1537 1538 1537 1537 1537 1536 1536 1536 1536 1535 1535 1535 1535 1534 1534 1534 1533 1533 1533 1532 1532 1532 1532 1532
1527 1528 1528 1529 1529 1530 1530 1531 1531 1531 1531 1531 1532 1532 1532 1533 1533 1534 1534 1534 1535 1535 1534 1534 1533 1534 1534 1534 1533 1532 1532 1531 1531 1531 1531 1530 1530 1530 1530 1529 1529 1529 1529
1524 1524 1525 1525 1526 1526 1527 1527 1528 1528 1528 1528 1528 1529 1529 1529 1530 1530 1531 1531 1531 1531 1531 1531 1531 1531 1530 1530 1530 1529 1529 1528 1528 1528 1528 1527 1527 1527 1526 1526 1526 1525 1525
1519 1520 1521 1522 1522 1522 1523 1523 1524 1524 1524 1525 1525 1525 1525 1526 1526 1527 1527 1527 1527 1527 1528 1527 1527 1528 1527 1527 1527 1526 1526 1525 1525 1524 1524 1524 1523 1523 1523 1523 1522 1522 1522
1516 1517 1517 1518 1518 1519 1519 1519 1520 1520 1521 1520 1521 1521 1521 1522 1522 1523 1523 1523 1523 1524 1524 1524 1523 1524 1524 1523 1523 1523 1522 1522 1521 1521 1521 1520 1520 1520 1520 1520 1519 1519 1519
1511 1512 1513 1514 1514 1515 1515 1516 1516 1516 1516 1516 1516 1517 1517 1518 1518 1518 1519 1519 1520 1520 1520 1520 1519 1519 1519 1519 1519 1519 1518 1518 1518 1518 1517 1517 1517 1517 1517 1516 1516 1516 1516
1508 1508 1509 1510 1511 1511 1511 1511 1511 1512 1511 1512 1512 1512 1513 1513 1514 1515 1515 1516 1516 1516 1516 1515 1515 1515 1515 1515 1515 1515 1515 1514 1514 1515 1514 1514 1514 1513 1513 1513 1513 1513 1513
1503 1504 1505 1505 1506 1507 1507 1507 1507 1507 1507 1508 1508 1508 1509 1509 1510 1511 1511 1512 1512 1512 1511 1511 1511 1511 1511 1511 1511 1511 1511 1511 1511 1512 1511 1511 1511 1510 1510 1509 1509 1510 1510
1499 1500 1501 1502 1502 1502 1503 1503 1503 1503 1503 1503 1504 1504 1505 1505 1506 1506 1507 1508 1508 1508 1508 1508 1507 1507 1507 1507 1507 1507 1507 1507 1507 1508 1508 1507 1508 1507 1507 1506 1506 1507 1507
1495 1496 1497 1497 1498 1498 1499 1499 1499 1500 1500 1500 1500 1501 1501 1501 1502 1503 1503 1503 1503 1504 1504 1504 1503 1503 1503 1503 1503 1503 1503 1503 1504 1504 1505 1505 1504 1504 1505 1504 1504 1504 1504
1492 1492 1493 1494 1494 1494 1495 1495 1495 1496 1496 1496 1497 1497 1498 1498 1499 1500 1500 1500 1500 1500 1500 1500 1500 1499 1499 1499 1499 1499 1499 1500 1500 1500 1501 1501 1501 1501 1502 1502 1502 1502 1502
1488 1489 1489 1490 1490 1491 1491 1491 1492 1492 1492 1493 1494 1494 1495 1495 1496 1496 1497 1497 1497 1497 1497 1497 1497 1496 1496 1496 1496 1496 1496 1496 1496 1497 1498 1498 1498 1498 1499 1499 1499 1499 1499